Regional Weather Roundup
Issued by NWS

Home | Current Version | Previous Version | Graphics & Text | Print | Product List | Glossary Off
Versions: 1 2 3 4 5 6 7 8 9 10 11 12 13 14 15 16 17 18 19 20 21 22 23 24 25 26 27 28 29 30 31 32 33 34 35 36 37 38 39 40 41 42 43 44 45 46 47 48 49 50

959
ASUS43 KDTX 141801
RWRMI
MICHIGAN HOURLY REGIONAL WEATHER ROUNDUP
NATIONAL WEATHER SERVICE DETROIT/PONTIAC MI
100 PM EST SUN FEB 14 2016

NOTE: "FAIR" INDICATES FEW OR NO CLOUDS BELOW 12,000 FEET WITH NO
SIGNIFICANT WEATHER AND/OR OBSTRUCTION TO VISIBILITY.

MIZ047>049-052>055-059>063-066>070-074>076-081>083-141900-
SOUTHEAST LOWER MICHIGAN

CITY           SKY/WX    TMP DP  RH WIND       PRES   REMARKS
ADRIAN         MOSUNNY   16   4  59 S12       30.36F WCI   3
6HR MIN TEMP:  -2; 6HR MAX TEMP:  17;

ALMA           SUNNY     18   2  50 SE8       30.35F WCI   8
ANN ARBOR      CLOUDY    15   4  61 SE8       30.35F WCI   4
BAD AXE        SUNNY     15   0  53 SW3       30.38F
DETROIT CITY   PTSUNNY   15   2  56 S12       30.40F WCI   2
6HR MIN TEMP:   1; 6HR MAX TEMP:  15;

DETROIT        FLURRIES  16   6  65 S12       30.40F WCI   3
6HR MIN TEMP:   2; 6HR MAX TEMP:  16; 6HR PCP: TRACE;

FLINT          SUNNY     17  -1  45 S8        30.36F WCI   7
6HR MIN TEMP: -10; 6HR MAX TEMP:  17;

GROSSE ILE     PTSUNNY   18   5  57 CALM      30.39F
HILLSDALE      MOSUNNY   16   4  58 SE10G16   30.31R WCI   3
6HR MIN TEMP:  -2; 6HR MAX TEMP:  16;

HOWELL         CLOUDY    16   4  58 S8G16     30.33F WCI   5
6HR MIN TEMP:  -7; 6HR MAX TEMP:  16;


CITY           SKY/WX    TMP DP  RH WIND       PRES   REMARKS
JACKSON        CLOUDY    16   3  56 SE12      30.32F WCI   3
6HR MIN TEMP:  -4; 6HR MAX TEMP:  16;

LAMBERTVILLE   MOSUNNY   19   4  54 SE9       30.38F WCI   7
6HR MIN TEMP:   0; 6HR MAX TEMP:  19;

LANSING        CLOUDY    16   1  51 SE12      30.33F WCI   3
6HR MIN TEMP:   0; 6HR MAX TEMP:  16;

LAPEER         FAIR      16   0  49 S7        30.36F WCI   6
6HR MIN TEMP: -12; 6HR MAX TEMP:  16;

MASON          CLOUDY    17   4  57 SE8       30.32F WCI   6
MONROE         CLOUDY    17   5  59 SE12      30.39F WCI   4
6HR MIN TEMP:   0; 6HR MAX TEMP:  17;

MT. CLEMENS    PTSUNNY   16   2  53 S10       30.38F WCI   3
6HR MIN TEMP:  -1; 6HR MAX TEMP:  16;

PONTIAC        CLOUDY    14   1  56 S12       30.34F WCI   0
6HR MIN TEMP:  -6; 6HR MAX TEMP:  15;

PORT HOPE        N/A     15   0  51 SW7       30.37F WCI   5
6HR MIN TEMP:   7; 6HR MAX TEMP:  16;

PORT HURON     PTSUNNY   14   3  62 S8G17     30.41F WCI   3
TRI CITIES     SUNNY     16   0  49 S9        30.38F WCI   4
6HR MIN TEMP:   4; 6HR MAX TEMP:  16;

MIDLAND        FAIR      15  -1  49 SE12      30.37F WCI   2
6HR MIN TEMP:   5; 6HR MAX TEMP:  16;

TROY           MOSUNNY   18   2  49 S5        30.39F WCI  11
SAGINAW HB     SUNNY     18   3  53 SE8       30.37F WCI   7
$$
MIZ043>046-050>051-056>058-064>065-071>073-077>080-141900-
SOUTHWEST LOWER MICHIGAN

CITY           SKY/WX    TMP DP  RH WIND       PRES   REMARKS
BATTLE CREEK   CLOUDY    15   2  56 S16       30.32R WCI  -1
6HR MIN TEMP:  -4; 6HR MAX TEMP:  16;

BENTON HARBOR  CLOUDY    16   4  59 SE13      30.28F WCI   2
6HR MIN TEMP:   6; 6HR MAX TEMP:  17;

BIG RAPIDS     SUNNY     16   0  48 SE12      30.28F WCI   3
6HR MIN TEMP:  -3; 6HR MAX TEMP:  16;

COLDWATER      CLOUDY    17   4  56 SE13      30.31F WCI   3
6HR MIN TEMP:  -3; 6HR MAX TEMP:  17;

FREMONT        FAIR      16  -3  41 SE10G16   30.30F WCI   4
HOLLAND        CLOUDY    15   3  59 SE13      30.31F WCI   1
6HR MIN TEMP:   4; 6HR MAX TEMP:  15;

GRAND RAPIDS   CLOUDY    18   3  52 SE13      30.32F WCI   5
6HR MIN TEMP:   1; 6HR MAX TEMP:  18;

IONIA          FAIR      17   2  54 SE12      30.32F WCI   4
6HR MIN TEMP:   1; 6HR MAX TEMP:  17;

KALAMAZOO      CLOUDY    16   1  51 SE10G18   30.31F WCI   4
6HR MIN TEMP:  -1; 6HR MAX TEMP:  16;

LUDINGTON      SUNNY     17   1  48 SE14G22   30.30S WCI   3
6HR MIN TEMP:  12; 6HR MAX TEMP:  17;

MARSHALL       MOSUNNY   18   4  55 S13       30.32R WCI   4
6HR MIN TEMP:  -3; 6HR MAX TEMP:  18;

MOUNT PLEASANT MOSUNNY   19   2  48 SE12      30.33F WCI   6
6HR MIN TEMP:   9; 6HR MAX TEMP:  19;

MUSKEGON       CLOUDY    16   1  51 SE13      30.33R WCI   2
6HR MIN TEMP:  11; 6HR MAX TEMP:  16;

SOUTH HAVEN    CLOUDY    16   4  60 SE9G17    30.29F WCI   4
$$
MIZ016>042-141900-
NORTHERN LOWER MICHIGAN

CITY           SKY/WX    TMP DP  RH WIND       PRES   REMARKS
ALPENA         SUNNY     16  -1  47 S5        30.35F WCI   9
6HR MIN TEMP: -11; 6HR MAX TEMP:  17;

BEAVER ISLAND  CLOUDY    20  11  69 S12       30.27F WCI   8
6HR MIN TEMP:  11; 6HR MAX TEMP:  20;

BELLAIRE       SUNNY     18   3  53 S12       30.32F WCI   5
6HR MIN TEMP:  10; 6HR MAX TEMP:  18;

CADILLAC       SUNNY     14  -1  52 SE12      30.25F WCI   0
CHARLEVOIX     MOSUNNY   19   5  54 SE12G17   30.32F WCI   6
6HR MIN TEMP:  10; 6HR MAX TEMP:  19;

FRANKFORT      MOSUNNY   20   4  50 SE13      30.28F WCI   7
GAYLORD        SUNNY     14   0  53 S10       30.26F WCI   1
6HR MIN TEMP:   4; 6HR MAX TEMP:  14;

GRAYLING       MOSUNNY   14   0  53 SE10      30.29F WCI   1
6HR MIN TEMP:   0; 6HR MAX TEMP:  14;

HARBOR SPRINGS CLOUDY    18   3  53 S8        30.30F WCI   7
HOUGHTON LAKE  SUNNY     13   0  56 S8        30.30F WCI   2
6HR MIN TEMP:   2; 6HR MAX TEMP:  13;

MANISTEE       SUNNY     19   1  45 SE9       30.28F WCI   9
OSCODA         SUNNY     17  -1  44 CALM      30.36F
6HR MIN TEMP: -12; 6HR MAX TEMP:  17;

PELLSTON       CLOUDY    16   5  62 SE9       30.31F WCI   4
6HR MIN TEMP:  -5; 6HR MAX TEMP:  16;

ROGERS CITY    SUNNY     14   1  56 SE10      30.35F WCI   1
TRAVERSE CITY  MOSUNNY   19   2  47 S9        30.30F WCI   8
6HR MIN TEMP:  11; 6HR MAX TEMP:  19;

$$
MIZ007>008-015-141900-
EASTERN UPPER MICHIGAN

CITY           SKY/WX    TMP DP  RH WIND       PRES   REMARKS
KINROSS        MOSUNNY   16   9  73 SE9       30.30F WCI   4
6HR MIN TEMP:  -8; 6HR MAX TEMP:  16;

MACKINAC ISLAN CLOUDY    16   5  63 S10       30.30F WCI   3
6HR MIN TEMP:   3; 6HR MAX TEMP:  16;

NEWBERRY       CLOUDY    16   9  72 SE10      30.25F WCI   4
6HR MIN TEMP: -10; 6HR MAX TEMP:  16;

S. S. MARIE    MOSUNNY   10  -1  61 E7        30.31F WCI  -1
6HR MIN TEMP:  -7; 6HR MAX TEMP:  10;

$$
MIZ004>006-011>014-085-141900-
CENTRAL UPPER MICHIGAN

CITY           SKY/WX    TMP DP  RH WIND       PRES   REMARKS
MANISTIQUE     CLOUDY    17   9  70 CALM      30.25F
6HR MIN TEMP: -16; 6HR MAX TEMP:  19;

ESCANABA       CLOUDY    16   5  62 SE6       30.25S WCI   7
6HR MIN TEMP: -17; 6HR MAX TEMP:  16;

MENOMINEE      CLOUDY    12   5  73 SE6       30.24F WCI   3
6HR MIN TEMP: -11; 6HR MAX TEMP:  14;

SAWYER-GWINN   SUNNY     14  -2  48 S20G25    30.17F WCI  -3
$$
MIZ001>003-009>011-084-141900-
WESTERN UPPER MICHIGAN

CITY           SKY/WX    TMP DP  RH WIND       PRES   REMARKS
IRON MOUNTAIN  CLOUDY    18   2  49 S12       30.16F WCI   5
6HR MIN TEMP: -21; 6HR MAX TEMP:  18;

HOUGHTON       SUNNY     12  -2  53 S12       30.11F WCI  -2
6HR MIN TEMP:  -6; 6HR MAX TEMP:  12;

COPPER HARBOR    N/A     17   4  56 SW8       30.15F WCI   7
6HR MIN TEMP:  -2; 6HR MAX TEMP:  17; 6HR PCP:  0.01;

IRONWOOD       CLOUDY    16  -9  32 S15G21    30.03F WCI   1
6HR MIN TEMP:  -6; 6HR MAX TEMP:  16;

$$

ABBREVIATIONS USED IN REMARKS
   TC - TEMPERATURE IN CELSIUS
  WCI - WIND CHILL INDEX
   HX - HEAT INDEX
  VSB - VISIBILITY





USA.gov is the U.S. government's official web portal to all federal, state and local government web resources and services.